Погода в Каолаке

Сенегал     14°09′42″N   16°03′32″W
темп.,
°C
ветер,
м/с
пор.,
м/с
влажн.,
%
обл.,
%
осадки,
мм/ч
давл.,
гПа
погр.,
м
6 марта, сб
сб600:00+24ссз511250 0.0 1009266
03:00+23ссз492810 0.0 1009216
06:00+21ссз363428 0.0 1009123
09:00+27ссв581419 0.0 1011369
12:00+36всв45810 0.0 1011963
15:00+40св21822 0.0 10082605
18:00+40сз22850 0.0 10083253
21:00+26сз5102362 0.0 1011235
7 марта, вс
вс700:00+24ссз4113244 0.0 1011261
03:00+23с5123118 0.0 1011295
06:00+23с4102339 0.0 1011197
09:00+28ссв6101811 0.0 1013467
12:00+36св681047 0.0 10131099
15:00+40св56851 0.0 10092231
18:00+39ссв551030 0.0 10083047
21:00+29ссз713210 0.0 1010273
8 марта, пн
пн800:00+26с714230 0.0 1012355
03:00+23с512300 0.0 1010337
06:00+22с512290 0.0 1010353
09:00+24ссв69230 0.0 1012462
12:00+34ссв67100 0.0 1012986
15:00+38ссв5680 0.0 10081836
18:00+38с5690 0.0 10072219
21:00+24ссз7133237 0.0 1009260
9 марта, вт
вт900:00+22ссз7133828 0.0 1010300
03:00+20с714470 0.0 1009332
06:00+19с512510 0.0 1009331
09:00+22ссв59360 0.0 1011430
12:00+32св56140 0.0 10111005
15:00+37ссв44100 0.0 10071696
18:00+36с44101 0.0 10072089
21:00+25ссз712270 0.0 1009226
10 марта, ср
ср1000:00+22ссз612340 0.0 1010277
03:00+21с7124144 0.0 1009296
06:00+20с5124072 0.0 1009318
09:00+24св4725100 0.0 1011457
12:00+32всв5612100 0.0 1012992
15:00+37св4410100 0.0 10081593
18:00+37ссв4410100 0.0 10071931
21:00+28ссз471898 0.0 1010122